Flag for U.S.A. Weather past 2 weeks in Mason, Ohio, U.S.A.

Now
51 °F

Mostly cloudy.


Feels Like: 51 °F
Forecast: 46 / 51 °F
Wind: 3 mph from North

Location: Butler County Regional Airport

Current Time: Apr 25, 2015 at 8:56:56 AM

Latest Report: Apr 25, 2015 at 7:53 AM


Visibility: 10 mi

Pressure: 29.82 "Hg

Humidity: 59%

Dew point: 37 °F

Location of MasonLocation

Historic Weather in Mason — Graph

°F

Mason temperature yesterday

Maximum temperature yesterday: 62 °F (at 4:53 PM)
Minimum temperature yesterday: 30 °F (at 3:53 AM)
Average temperature yesterday: 48 °F

Past Weeks' High & Low Weather Summary

 TemperatureHumidityPressure
High80 °F (Apr 13, 3:53 PM)100% (Apr 16, 10:53 PM)30.32 "Hg (Apr 16, 10:53 PM)
Low30 °F (Apr 24, 3:53 AM)19% (Apr 12, 4:53 PM)29.41 "Hg (Apr 19, 11:53 PM)
Average57 °F62%30.00 "Hg
* Reported Apr 10 6:53 AM — Apr 25 6:53 AM, Mason, Weather by CustomWeather, © 2015

Note: Actual official high and low records may vary slightly from our data, if they occured in-between our weather recording intervals... More about our weather records

Advertising

Mason weather history for previous 24 hours

 ConditionsComfort  
Time TempWeatherWind HumidityBarometerVisibility
6:53 AM
Sat, Apr 25
50 °FOvercast.3 mph66%29.84 "Hg10 mi
5:53 AM49 °FMostly cloudy.7 mph80%29.83 "Hg10 mi
4:53 AM50 °FOvercast.No wind83%29.88 "Hg10 mi
3:53 AM50 °FMostly cloudy.No wind80%29.88 "Hg10 mi
2:53 AM51 °FLight rain. Mostly cloudy.No wind66%29.90 "Hg10 mi
1:53 AM53 °FOvercast.3 mph52%29.90 "Hg10 mi
12:53 AM54 °FOvercast.6 mph53%29.90 "Hg10 mi
11:53 PM
Fri, Apr 24
56 °FMostly cloudy.No wind46%29.92 "Hg10 mi
10:53 PM57 °FMostly cloudy.No wind42%29.93 "Hg10 mi
9:53 PM56 °FOvercast.3 mph46%29.95 "Hg10 mi
8:53 PM58 °FMore clouds than sun.No wind35%29.96 "Hg10 mi
6:53 PM61 °FPartly sunny.5 mph26%29.99 "Hg10 mi
5:53 PM62 °FSunny.3 mph25%29.99 "Hg10 mi
4:53 PM62 °FSunny.5 mph22%30.01 "Hg10 mi
3:53 PM60 °FSunny.3 mph25%30.04 "Hg10 mi
2:53 PM59 °FSunny.5 mph27%30.09 "Hg10 mi
1:53 PM58 °FSunny.7 mph28%30.11 "Hg10 mi
12:53 PM58 °FSunny.3 mph31%30.13 "Hg10 mi
11:53 AM55 °FSunny.5 mph30%30.15 "Hg10 mi
10:53 AM53 °FSunny.3 mph37%30.15 "Hg10 mi
9:53 AM48 °FSunny.5 mph41%30.16 "Hg10 mi
8:53 AM40 °FSunny.No wind83%30.17 "Hg10 mi
Weather by CustomWeather, © 2015

See weather overviewHow to use our weather pages